Kirksville, MO

5:35 AM CDT on April 29, 2017 (GMT -0500)
Kirksville Regional

Weather History for KIRK - October, 2012

Change the Weather History Date:

Monday, October 8, 2012

  Actual Average Record
Temperature  
Mean Temperature 46 °F 56 °F  
Max Temperature 61 °F 67 °F 88 °F (1938)
Min Temperature 31 °F 45 °F 26 °F (1987)
Degree Days  
Heating Degree Days 19 10  
Month to date heating degree days 127 71  
Since 1 July heating degree days 263 178  
Cooling Degree Days 0 1  
Month to date cooling degree days 0 8  
Year to date cooling degree days 1300 935  
Moisture  
Dew Point 31 °F    
Average Humidity 60    
Maximum Humidity 85    
Minimum Humidity 35    
Precipitation  
Precipitation 0.00 in 0.10 in 1.71 in (2004)
Month to date precipitation 0.14 0.87  
Year to date precipitation 20.90 32.39  
Sea Level Pressure  
Sea Level Pressure 30.08 in    
Wind  
Wind Speed 10 mph (SSW)    
Max Wind Speed 21 mph    
Max Gust Speed 31 mph    
Visibility 10 miles    
Events      
T = Trace of Precipitation, MM = Missing Value Source: NWS Daily Summary

Daily Weather History Graph

Daily Weather History Graph

Search for Another Location

Airport or City:

Trip Planner

Search our weather history database for the weather conditions in past years. The results will help you decide how hot, cold, wet, or windy it might be!

Date:

Astronomy

Oct. 08, 2012 Rise Set
Actual Time 7:14 AM CDT 6:40 PM CDT
Civil Twilight 6:46 AM CDT 7:07 PM CDT
Nautical Twilight 6:15 AM CDT 7:38 PM CDT
Astronomical Twilight 5:43 AM CDT 8:10 PM CDT
Moon No Moon Rise 2:30 PM CDT (10/8)
Length of Visible Light 12h 20m
Length of Day
11h 26m
Last Quarter, 46% of the Moon is Illuminated
Oct 8
Last Quarter
Oct 15
New
Oct 21
First Quarter
Oct 29
Full
Nov 6
Last Quarter

Hourly Weather History & Observations

Time (CDT) Temp. Windchill Dew Point Humidity Pressure Visibility Wind Dir Wind Speed Gust Speed Precip Events Conditions
12:55 AM 34.0 °F 28.8 °F 26.1 °F 73% 30.16 in 10.0 mi SSW 5.8 mph - N/A   Clear
1:55 AM 33.1 °F 30.0 °F 26.1 °F 75% 30.17 in 10.0 mi SSW 3.5 mph - N/A   Clear
2:55 AM 33.1 °F 26.9 °F 27.0 °F 78% 30.16 in 10.0 mi SSW 6.9 mph - N/A   Clear
3:55 AM 33.1 °F 27.7 °F 27.0 °F 78% 30.14 in 10.0 mi SSW 5.8 mph - N/A   Clear
4:55 AM 32.0 °F 26.4 °F 27.0 °F 82% 30.14 in 10.0 mi SSW 5.8 mph - N/A   Clear
5:55 AM 33.1 °F 27.7 °F 27.0 °F 78% 30.15 in 10.0 mi SSW 5.8 mph - N/A   Clear
6:55 AM 32.0 °F 26.4 °F 28.0 °F 85% 30.15 in 10.0 mi SSW 5.8 mph - N/A   Clear
7:55 AM 33.1 °F 27.7 °F 28.9 °F 85% 30.16 in 10.0 mi SSW 5.8 mph - N/A   Clear
8:55 AM 41.0 °F 35.8 °F 32.0 °F 70% 30.16 in 10.0 mi SSW 8.1 mph - N/A   Clear
9:55 AM 48.0 °F - 33.1 °F 56% 30.14 in 10.0 mi SSW 9.2 mph - N/A   Clear
10:55 AM 52.0 °F - 34.0 °F 50% 30.13 in 10.0 mi SW 12.7 mph 19.6 mph N/A   Clear
11:55 AM 57.0 °F - 33.1 °F 40% 30.12 in 10.0 mi SSW 16.1 mph 23.0 mph N/A   Clear
12:55 PM 57.9 °F - 32.0 °F 37% 30.10 in 10.0 mi SW 12.7 mph 27.6 mph N/A   Clear
1:55 PM 60.1 °F - 33.1 °F 36% 30.06 in 10.0 mi SSW 18.4 mph 24.2 mph N/A   Clear
2:55 PM 60.8 °F - 32.0 °F 34% 30.01 in 10.0 mi SSW 19.6 mph 25.3 mph N/A   Clear
3:55 PM 60.1 °F - 32.0 °F 35% 30.01 in 10.0 mi SSW 15.0 mph 25.3 mph N/A   Clear
4:55 PM 59.0 °F - 32.0 °F 36% 30.00 in 10.0 mi SSW 18.4 mph 31.1 mph N/A   Clear
5:55 PM 57.0 °F - 33.1 °F 40% 30.00 in 10.0 mi South 12.7 mph 20.7 mph N/A   Clear
6:55 PM 53.1 °F - 32.0 °F 45% 30.01 in 10.0 mi SSW 10.4 mph - N/A   Clear
7:55 PM 50.0 °F - 33.1 °F 52% 30.01 in 10.0 mi South 8.1 mph - N/A   Clear
8:55 PM 48.9 °F - 33.1 °F 54% 30.01 in 10.0 mi SSW 8.1 mph - N/A   Clear
9:55 PM 46.9 °F - 34.0 °F 61% 30.01 in 10.0 mi South 6.9 mph - N/A   Clear
10:55 PM 46.9 °F - 34.0 °F 61% 30.00 in 10.0 mi South 8.1 mph - N/A   Clear
11:55 PM 48.9 °F - 34.0 °F 56% 29.98 in 10.0 mi SSW 13.8 mph - N/A   Clear